NIMBUS 2 DEB, 40642

Orbit data source: Space-Track

NIMBUS 2 DEB, 40642 is space debris in SSO originally from a launch on Sun, 15 May 1966 UTC launched from the Air Force Western Test Range (AFWTR). Debris objects in space refer to the collection of defunct objects orbiting the Earth. Examples of debris include non-operational satellites, rocket bodies, and fragments generated from explosions, collisions, or faulty payload assembly.

Loading next visibility...
Identifier
40642, 1966-040BF
Orbit
SSO
Country
Flag of USUS
Related business
Manufacturer
Unknown
Mission
Spacecraft
Bus & Motor
Unknown
Mass
Unknown
Launch date (UTC)
1966-05-15 (60 years ago)
Launch vehicle
Unknown
Launch site
Air Force Western Test Range (AFWTR)
Object type
Payload
Rocket body
Debris
Shape & HBR
Unknown shape, 0.1 m
Radar Cross Section
Small (<0.1 m²)

Expand to show TLE details & history
Last TLE update: 7 months ago

TLE from 7 months ago
0 NIMBUS 2 DEB
1 40642U 66040BF  25335.51310514  .00002638  00000-0  36626-2 0  9994
2 40642 100.3146 234.1542 0027845 200.9732 159.0265 13.58786644518568
Epoch: 2025-12-01T12:18Z
TLE epoch observation values (Epoch: 2025-12-01T12:18:52.284Z)
Latitude
0.00001°
Longitude
-21.17518°
Altitude
1,062.179 km
Speed
7.311 km/s
True Right ascension
15h 36m 37s
True Declination
0° 00' 00"
Sunlit
Object was in daylight at epoch
Visualization orbit readout
Latitude
Unknown
Longitude
Unknown
Altitude
Unknown
Speed
Unknown
Apparent Right ascension
Unknown
Apparent Declination
Unknown
Sunlit
N/A
Visualization observer readout
Local Sidereal Time
21:37:19
Azimuth
Unknown
Elevation
Unknown
Doppler factor
Unknown
Orbital elements
Apogee altitude
1,058.076 km
Perigee altitude
1,016.779 km
Semi-major axis
7,415.564 km
Eccentricity
0.00278
Inclination
100.3146°
RAAN
234.1542°
Arg. of periapsis
200.9732°
True anomaly
159.14034°
Mean anomaly
159.0265°
Eccentric anomaly
159.08346°
Mean motion
3.39881 °/min
Orbital period
105.92 mins
BSTAR
0.0036626
Loading maneuver chart data...
Computing Atmospheric mass density...
Loading historical data...
Loading historical data...
Loading historical data...
Loading historical data...
Loading historical data...
Loading historical data...
Loading historical data...

Documentation

Showing up to 5 results
|